Tracking 31027 objects as of 19-Jul-2025
HD Live streaming from Space Station
objects crossing your sky now

SL-14 DEB

Track SL-14 DEB now!
10-day predictions


NORAD ID: 35525
Int'l Code: 1987-068CU
Perigee: 942.8 km
Apogee: 975.1 km
Inclination: 82.5 °
Period: 104.1 minutes
Semi major axis: 7329 km
RCS: 0.0106 m2 (small)
Launch date: August 18, 1987
Source: Commonwealth of Independent States (former USSR) (CIS)
Launch site: PLESETSK MISSILE AND SPACE COMPLEX (PKMTR)

Note: This is SATELLITE DEBRIS
Your satellite tracking list
SPACEBEENZ-7
Track 1 satellite(s)




NASA's NSSDC Master Catalog

Two Line Element Set (TLE):
1 35525U 87068CU  25194.37228179  .00000132  00000-0  10593-3 0  9996
2 35525  82.5438 226.3971 0022040 109.9106 262.0705 13.83410400117427
Source of the keplerian elements: AFSPC